Time,TemperatureF,DewpointF,PressureIn,WindDirection,WindDirectionDegrees,WindSpeedMPH,WindSpeedGustMPH,Humidity,HourlyPrecipIn,Conditions,Clouds,dailyrainin,SoftwareType,DateUTC
2014-12-21 00:01:00,27.5,18.3,30.22,SSE,148,0.0,0.0,68,0.00,,,0.00,VWS V14.01,2014-12-21 05:01:00,
2014-12-21 00:06:00,27.7,18.5,30.22,SSE,148,0.0,0.0,68,0.00,,,0.00,VWS V14.01,2014-12-21 05:06:00,
2014-12-21 00:11:00,27.7,18.5,30.22,SSE,148,0.0,0.0,68,0.00,,,0.00,VWS V14.01,2014-12-21 05:11:00,
2014-12-21 00:16:00,27.7,18.5,30.22,SSE,148,0.0,0.0,68,0.00,,,0.00,VWS V14.01,2014-12-21 05:16:00,
2014-12-21 00:21:00,27.3,18.2,30.22,SSE,148,0.0,0.0,68,0.00,,,0.00,VWS V14.01,2014-12-21 05:21:00,
2014-12-21 00:26:00,27.3,18.2,30.22,SSE,148,0.0,0.0,68,0.00,,,0.00,VWS V14.01,2014-12-21 05:26:00,
2014-12-21 00:31:00,27.0,17.8,30.22,SSE,148,0.0,0.0,68,0.00,,,0.00,VWS V14.01,2014-12-21 05:31:00,
2014-12-21 00:36:00,27.0,17.8,30.22,SSE,148,0.0,0.0,68,0.00,,,0.00,VWS V14.01,2014-12-21 05:36:00,
2014-12-21 00:41:00,26.6,17.5,30.22,SSE,148,0.0,0.0,68,0.00,,,0.00,VWS V14.01,2014-12-21 05:41:00,
2014-12-21 00:46:00,26.6,17.5,30.22,SSE,148,0.0,0.0,68,0.00,,,0.00,VWS V14.01,2014-12-21 05:46:00,
2014-12-21 00:51:00,26.2,17.5,30.22,SSE,148,0.0,0.0,69,0.00,,,0.00,VWS V14.01,2014-12-21 05:51:00,
2014-12-21 00:56:00,26.2,17.5,30.22,SSE,148,0.0,0.0,69,0.00,,,0.00,VWS V14.01,2014-12-21 05:56:00,
2014-12-21 01:01:00,26.4,17.6,30.22,SSE,148,0.0,0.0,69,0.00,,,0.00,VWS V14.01,2014-12-21 06:01:00,
2014-12-21 01:06:00,26.4,17.6,30.22,SSE,148,0.0,0.0,69,0.00,,,0.00,VWS V14.01,2014-12-21 06:06:00,
2014-12-21 01:11:00,26.4,17.6,30.22,SSE,148,0.0,0.0,69,0.00,,,0.00,VWS V14.01,2014-12-21 06:11:00,
2014-12-21 01:16:00,27.0,18.2,30.22,SSE,148,0.0,0.0,69,0.00,,,0.00,VWS V14.01,2014-12-21 06:16:00,
2014-12-21 01:21:00,27.0,18.2,30.22,SSE,148,0.0,0.0,69,0.00,,,0.00,VWS V14.01,2014-12-21 06:21:00,
2014-12-21 01:26:00,27.0,18.5,30.22,SSE,148,0.0,0.0,70,0.00,,,0.00,VWS V14.01,2014-12-21 06:26:00,
2014-12-21 01:31:00,27.0,18.5,30.22,SSE,148,0.0,0.0,70,0.00,,,0.00,VWS V14.01,2014-12-21 06:31:00,
2014-12-21 01:36:00,27.1,18.7,30.22,SSE,148,0.0,0.0,70,0.00,,,0.00,VWS V14.01,2014-12-21 06:36:00,
2014-12-21 01:41:00,27.3,18.8,30.22,SSE,148,0.0,0.0,70,0.00,,,0.00,VWS V14.01,2014-12-21 06:41:00,
2014-12-21 01:46:00,27.3,19.2,30.22,SSE,148,0.0,0.0,71,0.00,,,0.00,VWS V14.01,2014-12-21 06:46:00,
2014-12-21 01:51:00,27.3,19.2,30.22,SSE,148,0.0,0.0,71,0.00,,,0.00,VWS V14.01,2014-12-21 06:51:00,
2014-12-21 01:56:00,27.5,19.4,30.22,SSE,148,0.0,0.0,71,0.00,,,0.00,VWS V14.01,2014-12-21 06:56:00,
2014-12-21 02:01:00,27.5,19.4,30.22,SSE,148,0.0,0.0,71,0.00,,,0.00,VWS V14.01,2014-12-21 07:01:00,
2014-12-21 02:06:00,27.5,19.4,30.22,SSE,148,0.0,0.0,71,0.00,,,0.00,VWS V14.01,2014-12-21 07:06:00,
2014-12-21 02:11:00,27.5,19.4,30.22,SSE,148,0.0,0.0,71,0.00,,,0.00,VWS V14.01,2014-12-21 07:11:00,
2014-12-21 02:16:00,27.7,19.5,30.22,SSE,148,0.0,0.0,71,0.00,,,0.00,VWS V14.01,2014-12-21 07:16:00,
2014-12-21 02:21:00,27.7,19.5,30.22,SSE,148,0.0,0.0,71,0.00,,,0.00,VWS V14.01,2014-12-21 07:21:00,
2014-12-21 02:26:00,27.9,19.7,30.22,SSE,148,0.0,0.0,71,0.00,,,0.00,VWS V14.01,2014-12-21 07:26:00,
2014-12-21 02:31:00,27.9,19.7,30.22,SSE,148,0.0,0.0,71,0.00,,,0.00,VWS V14.01,2014-12-21 07:31:00,
2014-12-21 02:36:00,28.0,19.9,30.22,SSE,148,0.0,0.0,71,0.00,,,0.00,VWS V14.01,2014-12-21 07:36:00,
2014-12-21 02:41:00,28.2,20.0,30.22,SSE,148,0.0,0.0,71,0.00,,,0.00,VWS V14.01,2014-12-21 07:41:00,
2014-12-21 02:46:00,28.2,20.0,30.22,SSE,148,0.0,0.0,71,0.00,,,0.00,VWS V14.01,2014-12-21 07:46:00,
2014-12-21 02:51:00,28.2,20.0,30.22,SSE,148,0.0,0.0,71,0.00,,,0.00,VWS V14.01,2014-12-21 07:51:00,
2014-12-21 02:56:00,28.4,20.2,30.22,SSE,148,0.0,0.0,71,0.00,,,0.00,VWS V14.01,2014-12-21 07:56:00,
2014-12-21 03:01:00,28.4,20.2,30.22,SSE,148,0.0,0.0,71,0.00,,,0.00,VWS V14.01,2014-12-21 08:01:00,
2014-12-21 03:06:00,28.4,20.2,30.22,SSE,148,0.0,0.0,71,0.00,,,0.00,VWS V14.01,2014-12-21 08:06:00,
2014-12-21 03:11:00,28.4,20.2,30.22,SSE,148,0.0,0.0,71,0.00,,,0.00,VWS V14.01,2014-12-21 08:11:00,
2014-12-21 03:16:00,28.6,20.4,30.22,SSE,148,0.0,0.0,71,0.00,,,0.00,VWS V14.01,2014-12-21 08:16:00,
2014-12-21 03:21:00,28.6,20.4,30.22,SSE,148,0.0,0.0,71,0.00,,,0.00,VWS V14.01,2014-12-21 08:21:00,
2014-12-21 03:26:00,28.6,20.4,30.22,SSE,148,0.0,0.0,71,0.00,,,0.00,VWS V14.01,2014-12-21 08:26:00,
2014-12-21 03:31:00,28.6,20.4,30.22,SSE,148,0.0,0.0,71,0.00,,,0.00,VWS V14.01,2014-12-21 08:31:00,
2014-12-21 03:36:00,28.6,20.4,30.22,SSE,148,0.0,0.0,71,0.00,,,0.00,VWS V14.01,2014-12-21 08:36:00,
2014-12-21 03:41:00,28.6,20.4,30.22,SSE,148,0.0,0.0,71,0.00,,,0.00,VWS V14.01,2014-12-21 08:41:00,
2014-12-21 03:46:00,28.6,20.4,30.22,SSE,148,0.0,0.0,71,0.00,,,0.00,VWS V14.01,2014-12-21 08:46:00,
2014-12-21 03:51:00,28.6,20.4,30.22,SSE,148,0.0,0.0,71,0.00,,,0.00,VWS V14.01,2014-12-21 08:51:00,
2014-12-21 03:56:00,28.6,20.4,30.22,SSE,148,0.0,0.0,71,0.00,,,0.00,VWS V14.01,2014-12-21 08:56:00,
2014-12-21 04:01:00,28.6,20.0,30.22,SSE,148,0.0,0.0,70,0.00,,,0.00,VWS V14.01,2014-12-21 09:01:00,
2014-12-21 04:06:00,28.8,20.2,30.22,SSE,148,0.0,0.0,70,0.00,,,0.00,VWS V14.01,2014-12-21 09:06:00,
2014-12-21 04:11:00,28.8,20.2,30.22,SSE,148,0.0,0.0,70,0.00,,,0.00,VWS V14.01,2014-12-21 09:11:00,
2014-12-21 04:16:00,28.8,20.2,30.22,SSE,148,0.0,0.0,70,0.00,,,0.00,VWS V14.01,2014-12-21 09:16:00,
2014-12-21 04:21:00,28.9,20.4,30.22,SSE,148,0.0,0.0,70,0.00,,,0.00,VWS V14.01,2014-12-21 09:21:00,
2014-12-21 04:26:00,28.9,20.4,30.22,SSE,148,0.0,0.0,70,0.00,,,0.00,VWS V14.01,2014-12-21 09:26:00,
2014-12-21 04:31:00,28.9,20.1,30.22,SSE,148,0.0,0.0,69,0.00,,,0.00,VWS V14.01,2014-12-21 09:31:00,
2014-12-21 04:36:00,28.9,20.1,30.22,SSE,148,0.0,0.0,69,0.00,,,0.00,VWS V14.01,2014-12-21 09:36:00,
2014-12-21 04:41:00,28.9,20.1,30.22,SSE,148,0.0,0.0,69,0.00,,,0.00,VWS V14.01,2014-12-21 09:41:00,
2014-12-21 04:46:00,28.9,19.7,30.22,SSE,148,0.0,0.0,68,0.00,,,0.00,VWS V14.01,2014-12-21 09:46:00,
2014-12-21 04:51:00,28.9,19.7,30.22,SSE,148,0.0,0.0,68,0.00,,,0.00,VWS V14.01,2014-12-21 09:51:00,
2014-12-21 04:56:00,28.9,19.7,30.22,SSE,148,0.0,0.0,68,0.00,,,0.00,VWS V14.01,2014-12-21 09:56:00,
2014-12-21 05:01:00,28.9,19.7,30.22,SSE,148,0.0,0.0,68,0.00,,,0.00,VWS V14.01,2014-12-21 10:01:00,
2014-12-21 05:06:00,28.9,19.7,30.22,SSE,148,0.0,0.0,68,0.00,,,0.00,VWS V14.01,2014-12-21 10:06:00,
2014-12-21 05:11:00,28.9,19.7,30.22,SSE,148,0.0,0.0,68,0.00,,,0.00,VWS V14.01,2014-12-21 10:11:00,